User: anonymous
Location: Bridgewater Hill Observatory
(43.5992°N, 72.6989°W)
Time: 00:22:33
(UTC-04:00)
Language:

Cosmos 1452 Rocket - Orbit

View from above orbital plane
View from above orbital plane
View from above satellite
View from above satellite

Ground track
Ground track

The orbit data is extracted from the following two-line orbital elements,

1 13992U 83031B   14203.47640110  .00000081  00000-0  37056-4 0  4621
2 13992 074.0543 152.2350 0004550 023.8348 118.5933 14.35754073636553
Epoch (UTC): 22 July 2014 11:26:01
Eccentricity: 0.0004550
inclination: 74.0543°
perigee height: 769 km
apogee height: 776 km
right ascension of ascending node: 152.2350°
argument of perigee: 23.8348°
revolutions per day: 14.35754073
mean anomaly at epoch: 118.5933°
orbit number at epoch: 63655

The dashed part of the orbit path shows where the satellite is in the earth's shadow,  

DLR